This is the latest recevied weather packets stored in our database for station/object WB4ROX. If no packets are shown the sender has not sent any weather packets the latest 10 day(s).
| Time | Temp. | Humidity | Pressure | Rain* | Wind** | Luminosity | Snow |
|---|---|---|---|---|---|---|---|
| 1777503037 | 13.33° C | 86% | 1014 hPa | 0 mm | - | 74 W/m² | - |
| 1777502735 | 13.33° C | 87% | 1014.4 hPa | 0 mm | - | 58 W/m² | - |
| 1777502432 | 13.33° C | 87% | 1014.3 hPa | 0 mm | - | 51 W/m² | - |
| 1777502129 | 13.33° C | 87% | 1014.3 hPa | 0 mm | - | 131 W/m² | - |
| 1777501827 | 13.33° C | 87% | 1014.4 hPa | 0 mm | - | 95 W/m² | - |
| 1777501523 | 13.33° C | 88% | 1014.3 hPa | 0 mm | - | 81 W/m² | - |
| 1777501220 | 13.33° C | 87% | 1014 hPa | 0 mm | - | 41 W/m² | - |
| 1777500918 | 13.33° C | 86% | 1014.3 hPa | 0 mm | - | 78 W/m² | - |
| 1777500615 | 13.33° C | 85% | 1014.1 hPa | 0 mm | - | 105 W/m² | - |
| 1777500312 | 13.33° C | 85% | 1014.1 hPa | 0 mm | - | 89 W/m² | - |
| 1777500008 | 13.89° C | 84% | 1014.6 hPa | 0 mm | - | 84 W/m² | - |
| 1777499705 | 13.89° C | 83% | 1014.1 hPa | 0 mm | - | 163 W/m² | - |
| 1777499401 | 13.89° C | 82% | 1014.1 hPa | 0 mm | - | 88 W/m² | - |
| 1777499100 | 14.44° C | 81% | 1014.1 hPa | 0 mm | - | 150 W/m² | - |
| 1777498796 | 14.44° C | 80% | 1014.1 hPa | 0 mm | - | 244 W/m² | - |
| 1777498492 | 14.44° C | 80% | 1013.9 hPa | 0 mm | - | 182 W/m² | - |
| 1777498189 | 14.44° C | 80% | 1014.3 hPa | 0 mm | - | 144 W/m² | - |
| 1777497887 | 14.44° C | 80% | 1013.9 hPa | 0 mm | - | 137 W/m² | - |
| 1777497582 | 13.89° C | 79% | 1014.3 hPa | 0 mm | - | 141 W/m² | - |
| 1777497279 | 14.44° C | 81% | 1014.4 hPa | 0 mm | - | 158 W/m² | - |
| 1777496975 | 14.44° C | 81% | 1014.5 hPa | 0 mm | - | 174 W/m² | - |
| 1777496673 | 14.44° C | 81% | 1014.6 hPa | 0 mm | - | 126 W/m² | - |
| 1777496369 | 14.44° C | 79% | 1014.6 hPa | 0 mm | - | 146 W/m² | - |
| 1777496065 | 14.44° C | 80% | 1014.4 hPa | 0 mm | - | 140 W/m² | - |
| 1777495761 | 14.44° C | 80% | 1014.7 hPa | 0 mm | - | 157 W/m² | - |
* Rain latest hour (hover to see other rain measurements)
** Current wind speed in m/s (hover to see current wind gust speed)